Hourly Weather Otnosovo

Today, 24 July, Saturday

Time Temperature Precipitation Wind Pressure Humidity
00:00 +13°C° 0 mm 2 mps 737 mmHg 83%
01:00 +13°C° 0 mm 2 mps 738 mmHg 82%
02:00 +13°C° 0 mm 2 mps 738 mmHg 82%
03:00 +13°C° 0 mm 2 mps 738 mmHg 81%
04:00 +14°C° 0 mm 2 mps 738 mmHg 80%
05:00 +14°C° 0 mm 1 mps 738 mmHg 78%
06:00 +15°C° 0 mm 2 mps 738 mmHg 72%
07:00 +16°C° 0 mm 2 mps 739 mmHg 67%
08:00 +17°C° 0 mm 2 mps 739 mmHg 62%
09:00 +18°C° 0 mm 2 mps 739 mmHg 56%
10:00 +19°C° 0 mm 2 mps 740 mmHg 51%
11:00 +19°C° 0 mm 2 mps 740 mmHg 46%
12:00 +20°C° 0 mm 2 mps 740 mmHg 44%
13:00 +20°C° 0 mm 2 mps 740 mmHg 43%
14:00 +21°C° 0 mm 2 mps 740 mmHg 41%
15:00 +20°C° 0 mm 2 mps 740 mmHg 43%
16:00 +20°C° 0 mm 2 mps 741 mmHg 46%
17:00 +20°C° 0 mm 2 mps 741 mmHg 49%
18:00 +18°C° 0 mm 2 mps 741 mmHg 56%
19:00 +16°C° 0 mm 1 mps 741 mmHg 63%
20:00 +14°C° 0 mm 1 mps 741 mmHg 70%
21:00 +14°C° 0 mm 1 mps 742 mmHg 69%
22:00 +14°C° 0 mm 1 mps 742 mmHg 68%
23:00 +13°C° 0 mm 1 mps 742 mmHg 68%

Tomorrow, 25 July, Sunday

Time Temperature Precipitation Wind Pressure Humidity
00:00 +14°C° 0 mm 1 mps 742 mmHg 66%
01:00 +14°C° 0 mm 1 mps 743 mmHg 65%
02:00 +14°C° 0 mm 1 mps 743 mmHg 64%
03:00 +14°C° 0 mm 1 mps 743 mmHg 64%
04:00 +15°C° 0 mm 1 mps 743 mmHg 64%
05:00 +15°C° 0 mm 1 mps 743 mmHg 65%
06:00 +16°C° 0 mm 1 mps 744 mmHg 63%
07:00 +16°C° 0 mm 1 mps 744 mmHg 62%
08:00 +18°C° 0 mm 1 mps 744 mmHg 61%
09:00 +20°C° 0 mm 1 mps 744 mmHg 57%
10:00 +20°C° 0 mm 2 mps 744 mmHg 53%
11:00 +21°C° 0 mm 2 mps 745 mmHg 49%
12:00 +23°C° 0 mm 2 mps 745 mmHg 47%
13:00 +24°C° 0 mm 2 mps 745 mmHg 44%
14:00 +24°C° 0 mm 2 mps 745 mmHg 41%
15:00 +24°C° 0 mm 1 mps 745 mmHg 44%
16:00 +24°C° 0 mm 1 mps 745 mmHg 46%
17:00 +22°C° 0 mm 0 mps 745 mmHg 48%
18:00 +23°C° 0 mm 1 mps 745 mmHg 52%
19:00 +21°C° 0 mm 1 mps 745 mmHg 56%
20:00 +20°C° 0 mm 1 mps 745 mmHg 61%
21:00 +19°C° 0 mm 1 mps 745 mmHg 62%
22:00 +19°C° 0 mm 1 mps 745 mmHg 63%
23:00 +18°C° 0 mm 1 mps 745 mmHg 64%

Day after tomorrow, 26 July, Monday

Time Temperature Precipitation Wind Pressure Humidity
00:00 +18°C° 0 mm 1 mps 745 mmHg 66%
01:00 +16°C° 0 mm 1 mps 746 mmHg 68%
02:00 +16°C° 0 mm 1 mps 746 mmHg 69%
03:00 +16°C° 0 mm 1 mps 746 mmHg 71%
04:00 +16°C° 0 mm 1 mps 746 mmHg 72%
05:00 +16°C° 0 mm 1 mps 746 mmHg 73%
06:00 +18°C° 0 mm 2 mps 746 mmHg 69%
07:00 +19°C° 0 mm 2 mps 746 mmHg 65%
08:00 +21°C° 0 mm 2 mps 746 mmHg 61%
09:00 +24°C° 0 mm 2 mps 746 mmHg 56%
10:00 +25°C° 0 mm 2 mps 746 mmHg 51%
11:00 +27°C° 0 mm 2 mps 746 mmHg 46%
12:00 +26°C° 0 mm 2 mps 746 mmHg 49%
13:00 +25°C° 0 mm 2 mps 746 mmHg 51%
14:00 +25°C° 0 mm 1 mps 746 mmHg 54%
15:00 +24°C° 0 mm 2 mps 746 mmHg 56%
16:00 +24°C° 0 mm 2 mps 746 mmHg 58%
17:00 +24°C° 0 mm 2 mps 746 mmHg 60%
18:00 +21°C° 0 mm 2 mps 746 mmHg 65%
19:00 +20°C° 0 mm 2 mps 746 mmHg 71%
20:00 +18°C° 0 mm 2 mps 746 mmHg 77%
21:00 +18°C° 0 mm 2 mps 746 mmHg 78%
22:00 +19°C° 0 mm 1 mps 746 mmHg 80%
23:00 +18°C° 0 mm 1 mps 746 mmHg 81%

27 July, Tuesday

Time Temperature Precipitation Wind Pressure Humidity
00:00 +18°C° 0.1 mm 1 mps 746 mmHg 83%
01:00 +16°C° 0.1 mm 1 mps 746 mmHg 86%
02:00 +16°C° 0.1 mm 2 mps 746 mmHg 88%
03:00 +16°C° 0.2 mm 2 mps 746 mmHg 88%
04:00 +16°C° 0.2 mm 1 mps 746 mmHg 88%
05:00 +16°C° 0.2 mm 1 mps 746 mmHg 88%
06:00 +18°C° 0 mm 2 mps 746 mmHg 81%
07:00 +20°C° 0 mm 2 mps 746 mmHg 75%
08:00 +21°C° 0 mm 2 mps 746 mmHg 69%
09:00 +24°C° 0 mm 2 mps 746 mmHg 62%
10:00 +26°C° 0 mm 2 mps 746 mmHg 55%
11:00 +27°C° 0 mm 2 mps 746 mmHg 48%
12:00 +28°C° 0 mm 2 mps 745 mmHg 47%
13:00 +28°C° 0 mm 2 mps 745 mmHg 46%
14:00 +28°C° 0 mm 2 mps 744 mmHg 45%
15:00 +27°C° 0 mm 2 mps 744 mmHg 50%
16:00 +26°C° 0 mm 2 mps 744 mmHg 56%
17:00 +25°C° 0 mm 1 mps 744 mmHg 61%
18:00 +24°C° 0 mm 1 mps 744 mmHg 64%
19:00 +23°C° 0 mm 1 mps 744 mmHg 67%
20:00 +22°C° 0 mm 1 mps 744 mmHg 70%
21:00 +21°C° 0 mm 1 mps 743 mmHg 72%
22:00 +20°C° 0 mm 1 mps 743 mmHg 74%
23:00 +18°C° 0 mm 2 mps 743 mmHg 77%

28 July, Wednesday

Time Temperature Precipitation Wind Pressure Humidity
00:00 +18°C° 0 mm 2 mps 743 mmHg 77%
01:00 +18°C° 0 mm 2 mps 743 mmHg 78%
02:00 +18°C° 0 mm 2 mps 743 mmHg 78%
03:00 +18°C° 0 mm 2 mps 743 mmHg 79%
04:00 +17°C° 0 mm 2 mps 742 mmHg 80%
05:00 +17°C° 0 mm 2 mps 742 mmHg 81%
06:00 +19°C° 0 mm 2 mps 742 mmHg 73%
07:00 +21°C° 0 mm 2 mps 742 mmHg 65%
08:00 +25°C° 0 mm 2 mps 742 mmHg 56%
09:00 +26°C° 0 mm 3 mps 742 mmHg 51%
10:00 +27°C° 0 mm 3 mps 741 mmHg 47%
11:00 +28°C° 0 mm 3 mps 741 mmHg 42%
12:00 +28°C° 0 mm 3 mps 741 mmHg 42%
13:00 +28°C° 0 mm 3 mps 740 mmHg 42%
14:00 +28°C° 0 mm 3 mps 740 mmHg 43%
15:00 +28°C° 0 mm 3 mps 739 mmHg 46%
16:00 +27°C° 0 mm 2 mps 739 mmHg 49%
17:00 +27°C° 0 mm 2 mps 739 mmHg 52%
18:00 +24°C° 0.1 mm 3 mps 739 mmHg 64%
19:00 +21°C° 0.1 mm 3 mps 739 mmHg 76%
20:00 +19°C° 0.1 mm 3 mps 739 mmHg 88%
21:00 +18°C° 0 mm 2 mps 738 mmHg 90%
22:00 +18°C° 0 mm 2 mps 738 mmHg 93%
23:00 +19°C° 0 mm 1 mps 738 mmHg 95%

29 July, Thursday

Time Temperature Precipitation Wind Pressure Humidity
00:00 +18°C° 0.1 mm 1 mps 737 mmHg 96%
01:00 +18°C° 0.1 mm 1 mps 737 mmHg 96%
02:00 +18°C° 0.1 mm 1 mps 737 mmHg 97%
03:00 +18°C° 0 mm 1 mps 737 mmHg 97%
04:00 +18°C° 0 mm 1 mps 737 mmHg 97%
05:00 +18°C° 0 mm 1 mps 736 mmHg 97%
06:00 +19°C° 0 mm 1 mps 736 mmHg 90%
07:00 +20°C° 0 mm 1 mps 736 mmHg 84%
08:00 +22°C° 0 mm 1 mps 736 mmHg 77%
09:00 +21°C° 0.2 mm 2 mps 736 mmHg 77%
10:00 +23°C° 0.2 mm 2 mps 736 mmHg 76%
11:00 +23°C° 0.2 mm 2 mps 736 mmHg 76%
12:00 +24°C° 0.3 mm 2 mps 736 mmHg 73%
13:00 +25°C° 0.3 mm 3 mps 736 mmHg 70%
14:00 +25°C° 0.3 mm 3 mps 736 mmHg 67%
15:00 +25°C° 0.2 mm 3 mps 736 mmHg 68%
16:00 +25°C° 0.2 mm 3 mps 736 mmHg 69%
17:00 +25°C° 0.2 mm 3 mps 736 mmHg 70%
18:00 +23°C° 0.1 mm 2 mps 736 mmHg 77%
19:00 +21°C° 0.1 mm 2 mps 736 mmHg 84%
20:00 +20°C° 0.1 mm 1 mps 736 mmHg 92%
21:00 +20°C° 0 mm 1 mps 736 mmHg 92%
22:00 +19°C° 0 mm 1 mps 736 mmHg 93%
23:00 +19°C° 0 mm 1 mps 736 mmHg 94%
Show more